,,Stat6,,Stat2,,Stat8,,Stat9,,Stat10,,Wind1,,Wind1,
time,status,PA1M_AVG,status,PR1M_SUM,status,RH1M_AVG,status,SR1M_AVG,status,TA1M_AVG,status,W1dAve1m,status,W1sAve1m,
2007-05-04, 00:00:00,VALID,917.484,VALID,0,VALID,100,VALID,-0.0509425,VALID,19.2908,VALID,32,VALID,1.07422,
2007-05-04, 00:01:00,VALID,917.474,VALID,0,VALID,100,VALID,-0.0679233,VALID,19.2678,VALID,17,VALID,1.11235,
2007-05-04, 00:02:00,VALID,917.462,VALID,0,VALID,100,VALID,-0.0679233,VALID,19.2813,VALID,34,VALID,0.907552,
2007-05-04, 00:03:00,VALID,917.45,VALID,0.2,VALID,100,VALID,-0.0509425,VALID,19.3005,VALID,33,VALID,1.24001,
2007-05-04, 00:04:00,VALID,917.428,VALID,0,VALID,100,VALID,-0.0849042,VALID,19.2938,VALID,37,VALID,1.3837,
2007-05-04, 00:05:00,VALID,917.423,VALID,0,VALID,100,VALID,-0.0679233,VALID,19.3035,VALID,317,VALID,0.775343,
2007-05-04, 00:06:00,VALID,917.404,VALID,0,VALID,100,VALID,-0.0849042,VALID,19.3102,VALID,55,VALID,0.671693,
2007-05-04, 00:07:00,VALID,917.392,VALID,0.2,VALID,100,VALID,-0.0169808,VALID,19.3002,VALID,73,VALID,0.458133,
2007-05-04, 00:08:00,VALID,917.377,VALID,0,VALID,100,VALID,-0.0169808,VALID,19.2968,VALID,59,VALID,0.43192,
2007-05-04, 00:09:00,VALID,917.367,VALID,0,VALID,100,VALID,-0.0339617,VALID,19.294,VALID,32,VALID,1.19985,
2007-05-04, 00:10:00,VALID,917.395,VALID,0.2,VALID,100,VALID,-0.0509425,VALID,19.297,VALID,320,VALID,0.620486,
2007-05-04, 00:11:00,VALID,917.403,VALID,0,VALID,100,VALID,-0.0679233,VALID,19.2905,VALID,224,VALID,0.519259,
2007-05-04, 00:12:00,VALID,917.401,VALID,0,VALID,100,VALID,-0.0679233,VALID,19.2775,VALID,36,VALID,1.01762,
2007-05-04, 00:13:00,VALID,917.371,VALID,0,VALID,100,VALID,-0.0169808,VALID,19.3037,VALID,38,VALID,1.80504,
2007-05-04, 00:14:00,VALID,917.359,VALID,0,VALID,100,VALID,-0.0339617,VALID,19.3035,VALID,36,VALID,1.45759,
2007-05-04, 00:15:00,VALID,917.364,VALID,0,VALID,100,VALID,-0.0509425,VALID,19.2873,VALID,28,VALID,1.20367,
2007-05-04, 00:16:00,VALID,917.365,VALID,0,VALID,100,VALID,-0.0849042,VALID,19.2968,VALID,4,VALID,0.368608,
2007-05-04, 00:17:00,VALID,917.342,VALID,0,VALID,100,VALID,-0.0509425,VALID,19.2903,VALID,12,VALID,1.17605,
2007-05-04, 00:18:00,VALID,917.347,VALID,0,VALID,100,VALID,-0.0339617,VALID,19.2933,VALID,41,VALID,0.956214,
2007-05-04, 00:19:00,VALID,917.346,VALID,0,VALID,100,VALID,-0.0339617,VALID,19.2873,VALID,40,VALID,0.33817,
2007-05-04, 00:20:00,VALID,917.331,VALID,0,VALID,100,VALID,-0.0339617,VALID,19.2773,VALID,36,VALID,1.23742,
2007-05-04, 00:21:00,VALID,917.339,VALID,0,VALID,100,VALID,-0.0509425,VALID,19.2773,VALID,20,VALID,1.23509,
2007-05-04, 00:22:00,VALID,917.366,VALID,0,VALID,100,VALID,-0.0169808,VALID,19.2838,VALID,20,VALID,0.976563,
2007-05-04, 00:23:00,VALID,917.371,VALID,0.2,VALID,100,VALID,-0.0679233,VALID,19.2703,VALID,294,VALID,0.672619,
2007-05-04, 00:24:00,VALID,917.331,VALID,0,VALID,100,VALID,-0.0339617,VALID,19.2673,VALID,73,VALID,1.68659,
2007-05-04, 00:25:00,VALID,917.316,VALID,0,VALID,100,VALID,-0.0509425,VALID,19.2676,VALID,43,VALID,2.07431,
2007-05-04, 00:26:00,VALID,917.301,VALID,0,VALID,100,VALID,-0.0679233,VALID,19.2676,VALID,50,VALID,0.784108,
2007-05-04, 00:27:00,VALID,917.241,VALID,0,VALID,100,VALID,-0.0339617,VALID,19.2773,VALID,25,VALID,2.02214,
2007-05-04, 00:28:00,VALID,917.233,VALID,0.2,VALID,100,VALID,-0.0509425,VALID,19.284,VALID,325,VALID,0.753815,
2007-05-04, 00:29:00,VALID,917.197,VALID,0,VALID,100,VALID,-0.0509425,VALID,19.2808,VALID,27,VALID,1.01035,
2007-05-04, 00:30:00,VALID,917.138,VALID,0,VALID,100,VALID,-0.0679233,VALID,19.2805,VALID,38,VALID,1.88722,
2007-05-04, 00:31:00,VALID,917.142,VALID,0,VALID,100,VALID,-0.0679233,VALID,19.2873,VALID,32,VALID,1.77839,
2007-05-04, 00:32:00,VALID,917.128,VALID,0,VALID,100,VALID,-0.0679233,VALID,19.2843,VALID,25,VALID,1.27416,
2007-05-04, 00:33:00,VALID,917.116,VALID,0,VALID,100,VALID,-0.0849042,VALID,19.2713,VALID,40,VALID,1.18496,
2007-05-04, 00:34:00,VALID,917.103,VALID,0,VALID,100,VALID,-0.0849042,VALID,19.271,VALID,67,VALID,0.910156,
2007-05-04, 00:35:00,VALID,917.109,VALID,0,VALID,100,VALID,0,VALID,19.274,VALID,12,VALID,0.587054,
2007-05-04, 00:36:00,VALID,917.084,VALID,0,VALID,100,VALID,0,VALID,19.2546,VALID,19,VALID,1.16815,
2007-05-04, 00:37:00,VALID,917.073,VALID,0,VALID,100,VALID,-0.0509425,VALID,19.2678,VALID,29,VALID,1.56997,
2007-05-04, 00:38:00,VALID,917.089,VALID,0,VALID,100,VALID,-0.0169808,VALID,19.2671,VALID,30,VALID,0.939062,
2007-05-04, 00:39:00,VALID,917.062,VALID,0.2,VALID,100,VALID,-0.0339617,VALID,19.2678,VALID,56,VALID,1.13529,
2007-05-04, 00:40:00,VALID,917.074,VALID,0,VALID,100,VALID,-0.0169808,VALID,19.2516,VALID,19,VALID,1.28888,
2007-05-04, 00:41:00,VALID,917.061,VALID,0,VALID,100,VALID,-0.0169808,VALID,19.271,VALID,34,VALID,0.912891,
2007-05-04, 00:42:00,VALID,917.06,VALID,0,VALID,100,VALID,-0.0509425,VALID,19.2548,VALID,38,VALID,1.075,
2007-05-04, 00:43:00,VALID,917.064,VALID,0,VALID,100,VALID,-0.0509425,VALID,19.2708,VALID,64,VALID,0.322088,
2007-05-04, 00:44:00,VALID,917.033,VALID,0,VALID,100,VALID,-0.0679233,VALID,19.2648,VALID,144,VALID,0.45258,
2007-05-04, 00:45:00,VALID,917,VALID,0,VALID,100,VALID,-0.0339617,VALID,19.2451,VALID,39,VALID,1.56758,
2007-05-04, 00:46:00,VALID,916.977,VALID,0,VALID,100,VALID,-0.0849042,VALID,19.2613,VALID,34,VALID,1.47763,
2007-05-04, 00:47:00,VALID,916.996,VALID,0,VALID,100,VALID,-0.101885,VALID,19.2646,VALID,325,VALID,0.339063,
2007-05-04, 00:48:00,VALID,916.969,VALID,0,VALID,100,VALID,-0.0849042,VALID,19.2518,VALID,329,VALID,0.378348,
2007-05-04, 00:49:00,VALID,916.944,VALID,0,VALID,100,VALID,-0.0679233,VALID,19.268,VALID,36,VALID,1.56741,
2007-05-04, 00:50:00,VALID,916.942,VALID,0,VALID,100,VALID,-0.0849042,VALID,19.278,VALID,30,VALID,0.813408,
2007-05-04, 00:51:00,VALID,916.949,VALID,0,VALID,100,VALID,-0.0679233,VALID,19.2813,VALID,21,VALID,0.924733,
2007-05-04, 00:52:00,VALID,916.947,VALID,0,VALID,100,VALID,-0.0679233,VALID,19.2678,VALID,36,VALID,1.32322,
2007-05-04, 00:53:00,VALID,916.939,VALID,0.2,VALID,100,VALID,-0.0169808,VALID,19.2648,VALID,39,VALID,1.37857,
2007-05-04, 00:54:00,VALID,916.912,VALID,0,VALID,100,VALID,-0.0509425,VALID,19.2608,VALID,34,VALID,1.74382,
2007-05-04, 00:55:00,VALID,916.909,VALID,0,VALID,100,VALID,-0.0509425,VALID,19.2678,VALID,32,VALID,2.44386,
2007-05-04, 00:56:00,VALID,916.912,VALID,0,VALID,100,VALID,-0.0679233,VALID,19.2808,VALID,33,VALID,1.31395,
2007-05-04, 00:57:00,VALID,916.924,VALID,0,VALID,100,VALID,-0.0509425,VALID,19.2676,VALID,26,VALID,1.01172,
2007-05-04, 00:58:00,VALID,916.882,VALID,0,VALID,100,VALID,-0.0339617,VALID,19.2875,VALID,29,VALID,0.934896,
2007-05-04, 00:59:00,VALID,916.888,VALID,0,VALID,100,VALID,-0.0509425,VALID,19.2713,VALID,237,VALID,0.624818,
2007-05-04, 01:00:00,VALID,916.893,VALID,0,VALID,100,VALID,-0.0509425,VALID,19.2388,VALID,42,VALID,0.593378,
2007-05-04, 01:01:00,VALID,916.9,VALID,0,VALID,100,VALID,-0.0509425,VALID,19.2451,VALID,43,VALID,0.253997,
2007-05-04, 01:02:00,VALID,916.844,VALID,0,VALID,100,VALID,-0.0339617,VALID,19.2414,VALID,112,VALID,0.781072,
2007-05-04, 01:03:00,VALID,916.838,VALID,0,VALID,100,VALID,-0.0509425,VALID,19.2581,VALID,33,VALID,0.765092,
2007-05-04, 01:04:00,VALID,916.844,VALID,0,VALID,100,VALID,-0.0679233,VALID,19.2745,VALID,59,VALID,0.461538,
2007-05-04, 01:05:00,VALID,916.814,VALID,0,VALID,100,VALID,-0.0509425,VALID,19.2581,VALID,85,VALID,0.780185,
2007-05-04, 01:06:00,VALID,916.803,VALID,0,VALID,100,VALID,-0.0169808,VALID,19.2743,VALID,29,VALID,1.04355,
2007-05-04, 01:07:00,VALID,916.797,VALID,0,VALID,100,VALID,0,VALID,19.2805,VALID,336,VALID,1.24037,
2007-05-04, 01:08:00,VALID,916.797,VALID,0,VALID,100,VALID,-0.0339617,VALID,19.2972,VALID,40,VALID,1.77012,
2007-05-04, 01:09:00,VALID,916.789,VALID,0,VALID,100,VALID,-0.0339617,VALID,19.3002,VALID,33,VALID,1.71932,
2007-05-04, 01:10:00,VALID,916.777,VALID,0,VALID,100,VALID,-0.0169808,VALID,19.3102,VALID,33,VALID,1.89546,
2007-05-04, 01:11:00,VALID,916.733,VALID,0,VALID,100,VALID,-0.0169808,VALID,19.3,VALID,23,VALID,1.90681,
2007-05-04, 01:12:00,VALID,916.752,VALID,0,VALID,100,VALID,-0.0169808,VALID,19.297,VALID,36,VALID,2.57919,
2007-05-04, 01:13:00,VALID,916.754,VALID,0,VALID,100,VALID,-0.0339617,VALID,19.3072,VALID,40,VALID,2.47101,
2007-05-04, 01:14:00,VALID,916.719,VALID,0,VALID,100,VALID,-0.101885,VALID,19.2977,VALID,24,VALID,2.65838,
2007-05-04, 01:15:00,VALID,916.711,VALID,0,VALID,100,VALID,-0.0679233,VALID,19.285,VALID,25,VALID,1.85938,
2007-05-04, 01:16:00,VALID,916.713,VALID,0,VALID,100,VALID,-0.0849042,VALID,19.2873,VALID,16,VALID,0.924055,
2007-05-04, 01:17:00,VALID,916.728,VALID,0,VALID,100,VALID,-0.0849042,VALID,19.2873,VALID,351,VALID,1.10405,
2007-05-04, 01:18:00,VALID,916.678,VALID,0,VALID,100,VALID,-0.0679233,VALID,19.297,VALID,29,VALID,2.15371,
2007-05-04, 01:19:00,VALID,916.663,VALID,0,VALID,100,VALID,-0.101885,VALID,19.3035,VALID,51,VALID,1.23177,
2007-05-04, 01:20:00,VALID,916.656,VALID,0,VALID,100,VALID,-0.0509425,VALID,19.3197,VALID,38,VALID,2.01172,
2007-05-04, 01:21:00,VALID,916.651,VALID,0,VALID,100,VALID,-0.0679233,VALID,19.3362,VALID,48,VALID,1.19949,
2007-05-04, 01:22:00,VALID,916.658,VALID,0,VALID,100,VALID,-0.101885,VALID,19.3526,VALID,46,VALID,0.846946,
2007-05-04, 01:23:00,VALID,916.638,VALID,0,VALID,100,VALID,-0.0679233,VALID,19.3459,VALID,27,VALID,1.04236,
2007-05-04, 01:24:00,VALID,916.624,VALID,0,VALID,100,VALID,-0.0679233,VALID,19.3526,VALID,8,VALID,0.279916,
2007-05-04, 01:25:00,VALID,916.613,VALID,0,VALID,100,VALID,-0.0849042,VALID,19.3427,VALID,42,VALID,0.723214,
2007-05-04, 01:26:00,VALID,916.599,VALID,0,VALID,100,VALID,-0.101885,VALID,19.3399,VALID,15,VALID,1.08631,
2007-05-04, 01:27:00,VALID,916.601,VALID,0,VALID,100,VALID,-0.101885,VALID,19.3294,VALID,16,VALID,0.297057,
2007-05-04, 01:28:00,VALID,916.6,VALID,0,VALID,100,VALID,-0.0849042,VALID,19.3364,VALID,23,VALID,0.00266768,
2007-05-04, 01:29:00,VALID,916.573,VALID,0,VALID,100,VALID,-0.0339617,VALID,19.3424,VALID,36,VALID,0.968378,
2007-05-04, 01:30:00,VALID,916.592,VALID,0,VALID,100,VALID,-0.0339617,VALID,19.3492,VALID,347,VALID,0.466146,
2007-05-04, 01:31:00,VALID,916.583,VALID,0,VALID,100,VALID,-0.0679233,VALID,19.3556,VALID,27,VALID,0.686821,
2007-05-04, 01:32:00,VALID,916.577,VALID,0,VALID,100,VALID,-0.0169808,VALID,19.3716,VALID,33,VALID,1.19957,
2007-05-04, 01:33:00,VALID,916.558,VALID,0,VALID,100,VALID,-0.0679233,VALID,19.3716,VALID,23,VALID,1.49219,
2007-05-04, 01:34:00,VALID,916.575,VALID,0,VALID,100,VALID,-0.0169808,VALID,19.3811,VALID,29,VALID,1.39118,
2007-05-04, 01:35:00,VALID,916.586,VALID,0,VALID,100,VALID,0,VALID,19.3943,VALID,44,VALID,0.454241,
2007-05-04, 01:36:00,VALID,916.577,VALID,0,VALID,100,VALID,-0.0509425,VALID,19.4071,VALID,32,VALID,1.14042,
2007-05-04, 01:37:00,VALID,916.588,VALID,0,VALID,100,VALID,0,VALID,19.4038,VALID,5,VALID,1.22066,
2007-05-04, 01:38:00,VALID,916.613,VALID,0,VALID,100,VALID,-0.0169808,VALID,19.4006,VALID,357,VALID,0.523438,
2007-05-04, 01:39:00,VALID,916.59,VALID,0,VALID,100,VALID,0.0169808,VALID,19.4233,VALID,291,VALID,1.19549,
2007-05-04, 01:40:00,VALID,916.595,VALID,0,VALID,100,VALID,-0.0169808,VALID,19.4492,VALID,42,VALID,1.42274,
2007-05-04, 01:41:00,VALID,916.616,VALID,0,VALID,100,VALID,-0.0509425,VALID,19.4689,VALID,91,VALID,0.541788,
2007-05-04, 01:42:00,VALID,916.613,VALID,0,VALID,100,VALID,0,VALID,19.4685,VALID,78,VALID,0.781076,
2007-05-04, 01:43:00,VALID,916.624,VALID,0,VALID,100,VALID,-0.0169808,VALID,19.4949,VALID,42,VALID,0.693407,
2007-05-04, 01:44:00,VALID,916.594,VALID,0,VALID,100,VALID,0,VALID,19.4949,VALID,35,VALID,1.27437,
2007-05-04, 01:45:00,VALID,916.568,VALID,0,VALID,100,VALID,-0.0339617,VALID,19.4951,VALID,341,VALID,1.40189,
2007-05-04, 01:46:00,VALID,916.557,VALID,0,VALID,100,VALID,-0.0169808,VALID,19.4882,VALID,346,VALID,0.868676,
2007-05-04, 01:47:00,VALID,916.542,VALID,0,VALID,100,VALID,-0.0169808,VALID,19.4947,VALID,346,VALID,0.997142,
2007-05-04, 01:48:00,VALID,916.523,VALID,0,VALID,100,VALID,-0.0509425,VALID,19.5046,VALID,230,VALID,0.707667,
2007-05-04, 01:49:00,VALID,916.504,VALID,0,VALID,100,VALID,0,VALID,19.5049,VALID,298,VALID,0.860491,
2007-05-04, 01:50:00,VALID,916.5,VALID,0,VALID,100,VALID,-0.0169808,VALID,19.5403,VALID,34,VALID,1.10472,
2007-05-04, 01:51:00,VALID,916.455,VALID,0,VALID,100,VALID,0,VALID,19.5535,VALID,1,VALID,0.952344,
2007-05-04, 01:52:00,VALID,916.46,VALID,0,VALID,100,VALID,-0.0339617,VALID,19.56,VALID,333,VALID,0.514509,
2007-05-04, 01:53:00,VALID,916.457,VALID,0,VALID,100,VALID,-0.0509425,VALID,19.5565,VALID,322,VALID,0.324855,
2007-05-04, 01:54:00,VALID,916.42,VALID,0,VALID,100,VALID,-0.0169808,VALID,19.5598,VALID,24,VALID,1.11239,
2007-05-04, 01:55:00,VALID,916.44,VALID,0,VALID,100,VALID,-0.0509425,VALID,19.5695,VALID,336,VALID,0.301562,
2007-05-04, 01:56:00,VALID,916.403,VALID,0,VALID,100,VALID,-0.0679233,VALID,19.5695,VALID,334,VALID,0.110243,
2007-05-04, 01:57:00,VALID,916.375,VALID,0,VALID,100,VALID,-0.0509425,VALID,19.573,VALID,54,VALID,0.513672,
2007-05-04, 01:58:00,VALID,916.373,VALID,0,VALID,100,VALID,-0.0679233,VALID,19.5698,VALID,89,VALID,0.345982,
2007-05-04, 01:59:00,VALID,916.366,VALID,0,VALID,100,VALID,-0.0169808,VALID,19.5728,VALID,88,VALID,0.259718,
2007-05-04, 02:00:00,VALID,916.369,VALID,0,VALID,100,VALID,-0.0339617,VALID,19.5857,VALID,60,VALID,0.363839,
2007-05-04, 02:01:00,VALID,916.349,VALID,0,VALID,100,VALID,-0.0849042,VALID,19.592,VALID,37,VALID,0.563772,
2007-05-04, 02:02:00,VALID,916.333,VALID,0,VALID,100,VALID,-0.0169808,VALID,19.5957,VALID,45,VALID,1.14215,
2007-05-04, 02:03:00,VALID,916.357,VALID,0,VALID,100,VALID,-0.0169808,VALID,19.6217,VALID,35,VALID,0.228711,
2007-05-04, 02:04:00,VALID,916.347,VALID,0,VALID,100,VALID,0,VALID,19.6117,VALID,160,VALID,0.498935,
2007-05-04, 02:05:00,VALID,916.337,VALID,0,VALID,100,VALID,0,VALID,19.5783,VALID,159,VALID,1.33212,
2007-05-04, 02:06:00,VALID,916.346,VALID,0,VALID,100,VALID,0,VALID,19.5892,VALID,31,VALID,1.32717,
2007-05-04, 02:07:00,VALID,916.355,VALID,0,VALID,100,VALID,-0.0169808,VALID,19.5985,VALID,5,VALID,0.379764,
2007-05-04, 02:08:00,VALID,916.361,VALID,0,VALID,100,VALID,-0.0169808,VALID,19.6117,VALID,26,VALID,0.614644,
2007-05-04, 02:09:00,VALID,916.364,VALID,0,VALID,100,VALID,-0.0169808,VALID,19.6212,VALID,35,VALID,0.45846,
2007-05-04, 02:10:00,VALID,916.358,VALID,0,VALID,100,VALID,0,VALID,19.6309,VALID,28,VALID,0.0243056,
2007-05-04, 02:11:00,VALID,916.359,VALID,0,VALID,100,VALID,0,VALID,19.6277,VALID,42,VALID,0.303597,
2007-05-04, 02:12:00,VALID,916.342,VALID,0,VALID,100,VALID,-0.0169808,VALID,19.6242,VALID,54,VALID,0.292597,
2007-05-04, 02:13:00,VALID,916.339,VALID,0,VALID,100,VALID,0,VALID,19.6242,VALID,53,VALID,0.504542,
2007-05-04, 02:14:00,VALID,916.324,VALID,0,VALID,100,VALID,0.0169808,VALID,19.6339,VALID,337,VALID,0.801172,
2007-05-04, 02:15:00,VALID,916.313,VALID,0,VALID,100,VALID,-0.0169808,VALID,19.6212,VALID,332,VALID,0.823611,
2007-05-04, 02:16:00,VALID,916.335,VALID,0,VALID,100,VALID,0,VALID,19.6277,VALID,317,VALID,0.80814,
2007-05-04, 02:17:00,VALID,916.341,VALID,0,VALID,100,VALID,0,VALID,19.5982,VALID,237,VALID,0.833519,
2007-05-04, 02:18:00,VALID,916.32,VALID,0,VALID,100,VALID,-0.0679233,VALID,19.5955,VALID,9,VALID,1.18835,
2007-05-04, 02:19:00,VALID,916.332,VALID,0,VALID,100,VALID,-0.0339617,VALID,19.5987,VALID,8,VALID,0.990589,
2007-05-04, 02:20:00,VALID,916.343,VALID,0,VALID,100,VALID,-0.0509425,VALID,19.6147,VALID,42,VALID,0.468945,
2007-05-04, 02:21:00,VALID,916.318,VALID,0,VALID,100,VALID,-0.0679233,VALID,19.6149,VALID,44,VALID,1.24543,
2007-05-04, 02:22:00,VALID,916.304,VALID,0,VALID,100,VALID,-0.0169808,VALID,19.6182,VALID,341,VALID,0.989025,
2007-05-04, 02:23:00,VALID,916.302,VALID,0,VALID,100,VALID,0,VALID,19.6047,VALID,205,VALID,1.01749,
2007-05-04, 02:24:00,VALID,916.252,VALID,0,VALID,100,VALID,-0.0169808,VALID,19.576,VALID,275,VALID,1.69803,
2007-05-04, 02:25:00,VALID,916.26,VALID,0,VALID,100,VALID,-0.0679233,VALID,19.5987,VALID,26,VALID,1.5597,
2007-05-04, 02:26:00,VALID,916.266,VALID,0,VALID,100,VALID,-0.0339617,VALID,19.6182,VALID,234,VALID,0.507254,
2007-05-04, 02:27:00,VALID,916.247,VALID,0,VALID,100,VALID,-0.0339617,VALID,19.6149,VALID,35,VALID,1.488,
2007-05-04, 02:28:00,VALID,916.242,VALID,0,VALID,100,VALID,-0.0339617,VALID,19.6149,VALID,41,VALID,0.665587,
2007-05-04, 02:29:00,VALID,916.218,VALID,0,VALID,100,VALID,-0.0849042,VALID,19.6085,VALID,353,VALID,1.13281,
2007-05-04, 02:30:00,VALID,916.222,VALID,0,VALID,100,VALID,-0.0509425,VALID,19.5857,VALID,235,VALID,1.12873,
2007-05-04, 02:31:00,VALID,916.212,VALID,0,VALID,100,VALID,-0.0849042,VALID,19.5633,VALID,317,VALID,0.746652,
2007-05-04, 02:32:00,VALID,916.214,VALID,0,VALID,100,VALID,-0.0849042,VALID,19.589,VALID,39,VALID,1.13281,
2007-05-04, 02:33:00,VALID,916.203,VALID,0,VALID,100,VALID,-0.0509425,VALID,19.566,VALID,79,VALID,0.96875,
2007-05-04, 02:34:00,VALID,916.213,VALID,0,VALID,100,VALID,-0.0679233,VALID,19.563,VALID,34,VALID,1.74288,
2007-05-04, 02:35:00,VALID,916.215,VALID,0,VALID,100,VALID,-0.0679233,VALID,19.5728,VALID,31,VALID,1.08345,
2007-05-04, 02:36:00,VALID,916.214,VALID,0,VALID,100,VALID,-0.0509425,VALID,19.563,VALID,47,VALID,0.583097,
2007-05-04, 02:37:00,VALID,916.221,VALID,0,VALID,100,VALID,-0.0679233,VALID,19.566,VALID,49,VALID,0.143483,
2007-05-04, 02:38:00,VALID,916.243,VALID,0,VALID,100,VALID,-0.0679233,VALID,19.579,VALID,48,VALID,0.208212,
2007-05-04, 02:39:00,VALID,916.232,VALID,0,VALID,100,VALID,-0.0849042,VALID,19.5823,VALID,11,VALID,0.43608,
2007-05-04, 02:40:00,VALID,916.228,VALID,0,VALID,100,VALID,-0.0509425,VALID,19.5758,VALID,35,VALID,0.68388,
2007-05-04, 02:41:00,VALID,916.232,VALID,0,VALID,100,VALID,-0.0849042,VALID,19.5922,VALID,29,VALID,0.167333,
2007-05-04, 02:42:00,VALID,916.212,VALID,0,VALID,100,VALID,-0.0849042,VALID,19.595,VALID,30,VALID,0.703497,
2007-05-04, 02:43:00,VALID,916.212,VALID,0,VALID,100,VALID,-0.101885,VALID,19.5952,VALID,257,VALID,0.436047,
2007-05-04, 02:44:00,VALID,916.189,VALID,0,VALID,100,VALID,-0.0169808,VALID,19.566,VALID,261,VALID,0.644717,
2007-05-04, 02:45:00,VALID,916.174,VALID,0.2,VALID,100,VALID,-0.0679233,VALID,19.5498,VALID,85,VALID,1.2311,
2007-05-04, 02:46:00,VALID,916.174,VALID,0,VALID,100,VALID,-0.0339617,VALID,19.5273,VALID,82,VALID,0.702324,
2007-05-04, 02:47:00,VALID,916.188,VALID,0,VALID,100,VALID,-0.0509425,VALID,19.5371,VALID,58,VALID,0.682706,
2007-05-04, 02:48:00,VALID,916.172,VALID,0,VALID,100,VALID,-0.0509425,VALID,19.5239,VALID,43,VALID,0.945313,
2007-05-04, 02:49:00,VALID,916.181,VALID,0,VALID,100,VALID,-0.0339617,VALID,19.5299,VALID,19,VALID,0.700521,
2007-05-04, 02:50:00,VALID,916.204,VALID,0,VALID,100,VALID,0,VALID,19.5271,VALID,267,VALID,0.454578,
2007-05-04, 02:51:00,VALID,916.205,VALID,0,VALID,100,VALID,-0.0169808,VALID,19.5368,VALID,215,VALID,0.513579,
2007-05-04, 02:52:00,VALID,916.204,VALID,0,VALID,100,VALID,-0.0339617,VALID,19.5206,VALID,101,VALID,0.6875,
2007-05-04, 02:53:00,VALID,916.206,VALID,0,VALID,100,VALID,-0.0509425,VALID,19.5011,VALID,193,VALID,0.563388,
2007-05-04, 02:54:00,VALID,916.205,VALID,0,VALID,100,VALID,-0.0679233,VALID,19.5044,VALID,181,VALID,0.700149,
2007-05-04, 02:55:00,VALID,916.187,VALID,0,VALID,100,VALID,-0.0679233,VALID,19.5146,VALID,38,VALID,0.601563,
2007-05-04, 02:56:00,VALID,916.182,VALID,0,VALID,100,VALID,-0.0679233,VALID,19.5009,VALID,24,VALID,0.187145,
2007-05-04, 02:57:00,VALID,916.156,VALID,0,VALID,100,VALID,-0.0849042,VALID,19.5046,VALID,21,VALID,0.708333,
2007-05-04, 02:58:00,VALID,916.159,VALID,0,VALID,100,VALID,-0.0509425,VALID,19.5106,VALID,293,VALID,0.260538,
2007-05-04, 02:59:00,VALID,916.145,VALID,0,VALID,100,VALID,-0.0339617,VALID,19.5144,VALID,295,VALID,0.605035,
2007-05-04, 03:00:00,VALID,916.14,VALID,0,VALID,100,VALID,-0.0849042,VALID,19.5239,VALID,30,VALID,0.576758,
2007-05-04, 03:01:00,VALID,916.136,VALID,0,VALID,100,VALID,-0.0509425,VALID,19.5436,VALID,28,VALID,0.279535,
2007-05-04, 03:02:00,VALID,916.12,VALID,0,VALID,100,VALID,-0.0849042,VALID,19.5176,VALID,80,VALID,0.159446,
2007-05-04, 03:03:00,VALID,916.126,VALID,0,VALID,100,VALID,-0.0679233,VALID,19.5011,VALID,23,VALID,0.842226,
2007-05-04, 03:04:00,VALID,916.131,VALID,0,VALID,100,VALID,-0.101885,VALID,19.456,VALID,350,VALID,0.941406,
2007-05-04, 03:05:00,VALID,916.133,VALID,0,VALID,100,VALID,-0.0849042,VALID,19.4722,VALID,35,VALID,1.19752,
2007-05-04, 03:06:00,VALID,916.144,VALID,0,VALID,100,VALID,-0.0169808,VALID,19.5079,VALID,38,VALID,0.590402,
2007-05-04, 03:07:00,VALID,916.163,VALID,0,VALID,100,VALID,-0.0509425,VALID,19.4977,VALID,9,VALID,0.681686,
2007-05-04, 03:08:00,VALID,916.163,VALID,0,VALID,100,VALID,-0.0679233,VALID,19.4912,VALID,34,VALID,1.46133,
2007-05-04, 03:09:00,VALID,916.173,VALID,0,VALID,100,VALID,-0.0509425,VALID,19.4979,VALID,36,VALID,1.26172,
2007-05-04, 03:10:00,VALID,916.19,VALID,0,VALID,100,VALID,-0.0849042,VALID,19.4884,VALID,42,VALID,1.17205,
2007-05-04, 03:11:00,VALID,916.193,VALID,0,VALID,100,VALID,-0.0339617,VALID,19.4719,VALID,43,VALID,0.836664,
2007-05-04, 03:12:00,VALID,916.222,VALID,0,VALID,100,VALID,-0.0339617,VALID,19.4747,VALID,44,VALID,0.152716,
2007-05-04, 03:13:00,VALID,916.222,VALID,0,VALID,100,VALID,-0.0849042,VALID,19.4812,VALID,43,VALID,0.194568,
2007-05-04, 03:14:00,VALID,916.22,VALID,0,VALID,100,VALID,-0.0169808,VALID,19.462,VALID,43,VALID,0.0537791,
2007-05-04, 03:15:00,VALID,916.212,VALID,0,VALID,100,VALID,-0.0509425,VALID,19.4457,VALID,43,VALID,0.0119141,
2007-05-04, 03:16:00,VALID,916.215,VALID,0,VALID,100,VALID,-0.0509425,VALID,19.4425,VALID,43,VALID,0.220238,
2007-05-04, 03:17:00,VALID,916.23,VALID,0,VALID,100,VALID,-0.0339617,VALID,19.4655,VALID,343,VALID,0.544588,
2007-05-04, 03:18:00,VALID,916.238,VALID,0,VALID,100,VALID,-0.0679233,VALID,19.4587,VALID,247,VALID,0.445858,
2007-05-04, 03:19:00,VALID,916.25,VALID,0,VALID,100,VALID,-0.0679233,VALID,19.446,VALID,303,VALID,0.482465,
2007-05-04, 03:20:00,VALID,916.26,VALID,0,VALID,100,VALID,-0.0849042,VALID,19.443,VALID,316,VALID,0.702553,
2007-05-04, 03:21:00,VALID,916.259,VALID,0,VALID,100,VALID,-0.0169808,VALID,19.4363,VALID,46,VALID,0.656622,
2007-05-04, 03:22:00,VALID,916.268,VALID,0,VALID,100,VALID,-0.0509425,VALID,19.439,VALID,49,VALID,0.187314,
2007-05-04, 03:23:00,VALID,916.26,VALID,0,VALID,100,VALID,-0.0509425,VALID,19.4395,VALID,97,VALID,0.277253,
2007-05-04, 03:24:00,VALID,916.256,VALID,0,VALID,100,VALID,-0.0339617,VALID,19.4492,VALID,178,VALID,0.280729,
2007-05-04, 03:25:00,VALID,916.261,VALID,0,VALID,100,VALID,-0.0339617,VALID,19.4325,VALID,279,VALID,0.215701,
2007-05-04, 03:26:00,VALID,916.267,VALID,0,VALID,100,VALID,-0.0509425,VALID,19.4263,VALID,352,VALID,0.431362,
2007-05-04, 03:27:00,VALID,916.256,VALID,0,VALID,100,VALID,-0.0169808,VALID,19.433,VALID,20,VALID,0.816146,
2007-05-04, 03:28:00,VALID,916.275,VALID,0,VALID,100,VALID,-0.0509425,VALID,19.426,VALID,317,VALID,1.03962,
2007-05-04, 03:29:00,VALID,916.293,VALID,0,VALID,100,VALID,-0.0169808,VALID,19.4228,VALID,242,VALID,0.301711,
2007-05-04, 03:30:00,VALID,916.297,VALID,0,VALID,100,VALID,-0.0169808,VALID,19.4131,VALID,220,VALID,0.260789,
2007-05-04, 03:31:00,VALID,916.313,VALID,0,VALID,100,VALID,0,VALID,19.4101,VALID,216,VALID,0.0877131,
2007-05-04, 03:32:00,VALID,916.315,VALID,0,VALID,100,VALID,-0.0169808,VALID,19.4135,VALID,215,VALID,0.202381,
2007-05-04, 03:33:00,VALID,916.322,VALID,0,VALID,100,VALID,-0.0509425,VALID,19.4131,VALID,62,VALID,0.723958,
2007-05-04, 03:34:00,VALID,916.335,VALID,0,VALID,100,VALID,-0.0169808,VALID,19.4135,VALID,25,VALID,0.200457,
2007-05-04, 03:35:00,VALID,916.331,VALID,0,VALID,100,VALID,0,VALID,19.4128,VALID,32,VALID,0.101744,
2007-05-04, 03:36:00,VALID,916.327,VALID,0,VALID,100,VALID,-0.0679233,VALID,19.4038,VALID,68,VALID,0.362326,
2007-05-04, 03:37:00,VALID,916.318,VALID,0,VALID,100,VALID,-0.0339617,VALID,19.3968,VALID,92,VALID,0.374455,
2007-05-04, 03:38:00,VALID,916.317,VALID,0,VALID,100,VALID,-0.0679233,VALID,19.3941,VALID,94,VALID,0.281436,